Location: Poughquag
(41.6090°N, 73.6820°W)
Time: 19:38:31
(UTC-04:00)

MOZHAYETS 4 - Pass Details

Date: 20 August 2024
Orbit: 650 x 668 km, 98.3° (Epoch: 15 September)

Event Time Altitude Azimuth Distance (km) Brightness Sun altitude
Exits shadow 05:17:44 - 197° (SSW) 2,802 10.5 -9.7°
Reaches altitude 10° 05:19:45 10° 208° (SSW) 2,091 9.8 -9.4°
Maximum altitude 05:23:33 26° 265° (W) 1,330 8.7 -8.8°
Drops below altitude 10° 05:27:21 10° 321° (NW) 2,103 10.1 -8.1°
Sets 05:29:56 0° 334° (NNW) 3,020 11.1 -7.7°
